This demonstration page uses our WeatherBlox Daily Observations layout. Learn more.

Left ArrowRight Arrow

36.19886, -115.1175

Hourly Observations for September 9, 2020

Temp ( °F °C ) Dew Point ( °F °C ) Humidity (%) Winds ( mph kmh ) Pressure ( in mb ) Visibility ( mi km ) Precip ( " mm )
12:53 am 00:53 Hazy 69 20.6 22 -5.6 17 17 NE 15 24 29.98 1015 10 16.0934 0 0
1:53 am 01:53 Hazy 69 20.6 21 -6.1 16 16 N 14 22 29.98 1015 10 16.0934 0 0
2:53 am 02:53 Hazy 68 20 21 -6.1 17 17 NNE 9 15 29.98 1015 10 16.0934 0 0
3:53 am 03:53 Hazy 67 19.4 21 -6.1 17 17 NNW 8 13 29.97 1015 10 16.0934 0 0
4:53 am 04:53 Hazy 66 18.9 22 -5.6 19 19 NNW 8 13 29.98 1015 10 16.0934 0 0
5:53 am 05:53 Hazy 65 18.3 22 -5.6 19 19 NNW 7 11 30 1016 10 16.0934 0 0
6:53 am 06:53 Hazy 65 18.3 22 -5.6 19 19 NNW 7 11 30.02 1017 10 16.0934 0 0
7:53 am 07:53 Hazy 66 18.9 22 -5.6 19 19 SE 6 9 30.03 1017 10 16.0934 0 0
8:53 am 08:53 Hazy 69 20.6 23 -5 17 17 Calm 30.04 1017 10 16.0934 0 0
9:46 am 09:46 Hazy 73 22.8 23 -5 15 15 ENE 18 30 29.94 1014 10 16.0934 0 0
9:53 am 09:53 Hazy 73 22.8 23 -5 15 15 ENE 24 39 30.04 1017 10 16.0934 0 0
10:53 am 10:53 Hazy 75 23.9 23 -5 14 14 NE 16 26 30.02 1017 10 16.0934 0 0
11:53 am 11:53 Sunny 77 25 22 -5.6 13 13 NE 16 26 30.01 1016 10 16.0934 0 0
12:53 pm 12:53 Sunny 77 25 22 -5.6 13 13 E 14 22 29.99 1016 10 16.0934 0.001 0.001
1:53 pm 13:53 Sunny 79 26.1 20 -6.7 11 11 NE 6 9 29.96 1015 10 16.0934 0 0
2:53 pm 14:53 Sunny 81 27.2 18 -7.8 9 9 Calm 29.93 1014 10 16.0934 0 0
3:53 pm 15:53 Sunny 82 27.8 18 -7.8 9 9 Calm 29.92 1013 10 16.0934 0 0
4:53 pm 16:53 Sunny 82 27.8 21 -6.1 10 10 NE 9 15 29.92 1013 10 16.0934 0 0
5:53 pm 17:53 Sunny 81 27.2 22 -5.6 11 11 E 18 30 29.93 1014 10 16.0934 0.001 0.001
6:53 pm 18:53 Sunny 79 26.1 22 -5.6 12 12 E 10 17 29.95 1014 10 16.0934 0 0
7:53 pm 19:53 Clear 76 24.4 21 -6.1 13 13 E 7 11 29.98 1015 10 16.0934 0 0
8:53 pm 20:53 Clear 76 24.4 21 -6.1 13 13 NE 8 13 30.01 1016 10 16.0934 0 0
9:53 pm 21:53 Clear 74 23.3 21 -6.1 14 14 ENE 9 15 30.02 1017 10 16.0934 0 0
10:53 pm 22:53 Clear 73 22.8 22 -5.6 15 15 E 7 11 30.04 1017 10 16.0934 0 0
11:53 pm 23:53 Clear 70 21.1 22 -5.6 16 16 E 5 7 30.04 1017 10 16.0934 0 0

Powered by AerisWeather